Home   Weather   Port Said   Past weeks

Flag for Egypt Past Weather in Port Said, Egypt — Yesterday and Last 2 Weeks

Now
61 °F

Passing clouds.


Feels Like: 61 °F
Forecast: 58 / 66 °F
Wind: 8 mph from Northeast

Location: Port Said Airport

Current Time: Dec 10, 2016 at 5:02:59 am

Latest Report: Dec 10, 2016 at 4:00 am


Visibility: N/A

Pressure: 30.24 "Hg

Humidity: 63%

Dew Point: 48 °F

Location of Port SaidLocation

Past Weather in Port Said — Graph

°F

Port Said Temperature Yesterday

Maximum temperature yesterday: 68 °F (at 1:00 pm)
Minimum temperature yesterday: 61 °F (at 8:00 pm)
Average temperature yesterday: 63 °F

High & Low Weather Summary for the Past Weeks

 TemperatureHumidityPressure
High77 °F (Nov 30, 3:00 pm)94% (Dec 2, 7:00 am)30.30 "Hg (Dec 2, 7:00 am)
Low54 °F (Dec 2, 2:00 am)33% (Nov 30, 12:00 pm)29.77 "Hg (Dec 1, 4:00 pm)
Average65 °F67%30.09 "Hg
* Reported Nov 25 3:00 am — Dec 10 3:00 am, Port Said, Weather by CustomWeather, © 2016

Note: Actual official high and low records may vary slightly from our data, if they occured in-between our weather recording intervals... More about our weather records

Advertising

Port Said Weather History for the Previous 24 Hours

Scroll right to see more
 ConditionsComfort  
Time TempWeatherWind HumidityBarometerVisibility
3:00 am
Sat, Dec 10
61 °FPassing clouds.7 mph63%30.24 "HgN/A
2:00 am61 °FPassing clouds.7 mph63%30.24 "HgN/A
1:00 am61 °FPassing clouds.9 mph63%30.24 "HgN/A
12:00 am61 °FPassing clouds.10 mph63%30.27 "HgN/A
10:00 pm
Fri, Dec 9
61 °FPassing clouds.9 mph63%30.27 "HgN/A
9:00 pm61 °FPassing clouds.9 mph63%30.30 "HgN/A
8:00 pm61 °FPassing clouds.9 mph63%30.30 "HgN/A
7:00 pm63 °FPassing clouds.13 mph64%30.27 "HgN/A
6:00 pm63 °FPassing clouds.12 mph64%30.27 "HgN/A
5:00 pm63 °FPassing clouds.13 mph64%30.27 "HgN/A
4:00 pm63 °FScattered clouds.12 mph64%30.27 "HgN/A
3:00 pm66 °FScattered clouds.14 mph56%30.27 "HgN/A
2:00 pm66 °FScattered clouds.14 mph56%30.27 "HgN/A
1:00 pm68 °FPassing clouds.10 mph49%30.27 "HgN/A
11:00 am66 °FScattered clouds.14 mph52%30.30 "HgN/A
10:00 am64 °FScattered clouds.16 mph64%30.01 "HgN/A
9:00 am63 °FScattered clouds.15 mph73%30.30 "HgN/A
8:00 am63 °FScattered clouds.13 mph73%30.30 "HgN/A
7:00 am63 °FSunny.13 mph77%30.30 "Hg10 mi
6:00 am63 °FClear.18 mph77%30.30 "Hg10 mi
5:00 am63 °FClear.18 mph77%30.27 "Hg10 mi
Weather by CustomWeather, © 2016

See weather overviewHow to use our weather pages